Location: ????????
(55.4000°N, 39.1167°E)
Time: 01:50:01
(UTC+00:00)

Cosmos 773 Rocket - Pass Details

Date: 19 May 2025
Orbit: 742 x 772 km, 74.1° (Epoch: 13 June)

Event Time Altitude Azimuth Distance (km) Brightness Sun altitude
Exits shadow 20:11:32 - 217° (SW) 2,877 6.6 -13.2°
Reaches altitude 10° 20:13:08 10° 220° (SW) 2,262 6.1 -13.3°
Maximum altitude 20:18:13 64° 302° (WNW) 825 4.4 -13.5°
Drops below altitude 10° 20:23:19 10° 24° (NNE) 2,268 7.2 -13.7°
Sets 20:25:43 0° 28° (NNE) 3,196 8.0 -13.8°
